Location: Unspecified
(0.0000°N, 0.0000°E)
Time: 05:00:45
(UTC+00:00)

Hubble Space Telescope - Pass Details

Date: 04 February 2019
Orbit: 537 x 540 km, 28.5° (Epoch: 21 February)

Event Time Altitude Azimuth Distance (km) Brightness Sun altitude
Exits shadow 04:41:36 70° 221° (SW) 567 0.7 -22.1°
Maximum altitude 04:41:41 71° 210° (SSW) 566 0.7 -22.1°
Drops below altitude 10° 04:45:48 10° 126° (SE) 1,783 4.4 -21.1°
Sets 04:48:04 0° 124° (SE) 2,675 5.7 -20.5°
